TimeMDT,TemperatureF,Dew PointF,Humidity,Sea Level PressureIn,VisibilityMPH,Wind Direction,Wind SpeedMPH,Gust SpeedMPH,PrecipitationIn,Events,Conditions,WindDirDegrees,DateUTC
12:56 AM,36.0,33.1,89,30.12,10.0,WSW,3.5,-,N/A,,Overcast,250,2012-10-09 06:56:00
1:56 AM,35.1,33.1,92,30.14,10.0,Calm,Calm,-,N/A,,Overcast,0,2012-10-09 07:56:00
2:56 AM,36.0,32.0,86,30.14,10.0,Calm,Calm,-,N/A,,Overcast,0,2012-10-09 08:56:00
3:56 AM,35.1,32.0,89,30.14,10.0,West,3.5,-,N/A,,Overcast,260,2012-10-09 09:56:00
4:56 AM,34.0,30.9,89,30.15,10.0,WNW,3.5,-,N/A,,Mostly Cloudy,290,2012-10-09 10:56:00
5:56 AM,32.0,30.0,92,30.16,10.0,WNW,8.1,-,N/A,,Clear,290,2012-10-09 11:56:00
6:56 AM,32.0,28.9,88,30.15,10.0,WNW,8.1,-,N/A,,Partly Cloudy,290,2012-10-09 12:56:00
7:56 AM,32.0,28.9,88,30.17,10.0,Calm,Calm,-,N/A,,Overcast,0,2012-10-09 13:56:00
8:56 AM,33.1,30.9,92,30.16,10.0,NNE,5.8,-,N/A,,Clear,30,2012-10-09 14:56:00
9:56 AM,37.9,32.0,79,30.15,10.0,Calm,Calm,-,N/A,,Scattered Clouds,0,2012-10-09 15:56:00
10:56 AM,41.0,33.1,73,30.14,10.0,Calm,Calm,-,N/A,,Clear,0,2012-10-09 16:56:00
11:56 AM,45.0,34.0,65,30.13,10.0,Variable,4.6,-,N/A,,Clear,0,2012-10-09 17:56:00
12:56 PM,50.0,30.0,46,30.11,10.0,South,9.2,-,N/A,,Clear,190,2012-10-09 18:56:00
1:56 PM,51.1,28.9,43,30.09,10.0,WSW,5.8,-,N/A,,Clear,240,2012-10-09 19:56:00
2:56 PM,54.0,30.9,41,30.06,10.0,Calm,Calm,-,N/A,,Clear,0,2012-10-09 20:56:00
3:56 PM,55.9,32.0,40,30.04,10.0,SSE,4.6,-,N/A,,Clear,150,2012-10-09 21:56:00
4:56 PM,57.0,32.0,39,30.03,10.0,Variable,4.6,-,N/A,,Partly Cloudy,0,2012-10-09 22:56:00
5:56 PM,57.0,30.9,37,30.02,10.0,Calm,Calm,-,N/A,,Clear,0,2012-10-09 23:56:00
6:56 PM,52.0,30.9,45,30.04,10.0,Calm,Calm,-,N/A,,Clear,0,2012-10-10 00:56:00
7:56 PM,46.0,30.0,54,30.05,10.0,West,4.6,-,N/A,,Clear,260,2012-10-10 01:56:00
8:56 PM,44.1,30.9,60,30.04,10.0,WSW,9.2,-,N/A,,Clear,250,2012-10-10 02:56:00
9:56 PM,42.1,30.0,62,30.03,10.0,West,6.9,-,N/A,,Clear,280,2012-10-10 03:56:00
10:56 PM,42.1,30.0,62,30.01,10.0,West,4.6,-,N/A,,Clear,260,2012-10-10 04:56:00
11:56 PM,39.9,30.9,70,29.98,10.0,WSW,9.2,-,N/A,,Clear,240,2012-10-10 05:56:00